Regional Weather Roundup
Issued by NWS Sterling, VA

Current Version | Previous Version | Text Only | Print | Product List | Glossary On
Versions: 1 2 3 4 5 6 7 8 9 10 11 12 13 14 15 16 17 18 19 20 21 22 23 24 25 26 27 28 29 30 31 32 33 34 35 36 37 38 39 40 41 42 43 44 45 46 47 48 49 50
000
ASUS41 KLWX 290911
RWRLWX

REGIONAL WEATHER ROUNDUP
NATIONAL WEATHER SERVICE BALTIMORE MD/WASHINGTON DC
500 AM EDT THU SEP 29 2016

Note: "FAIR" indicates few or no clouds below 12,000 feet
with no significant weather and/or obstructions to visibility.
 TC=TEMPERATURE CELSIUS

 * =Non NWS site. Station does not report precipitation (e.g. rain,
    snow, etc.), thunder, or fog.

DCZ001-MDZ009-015-VAZ040>042-051-053>054-291000-
WASHINGTON METRO

CITY           SKY/WX    TMP DP  RH WIND       PRES   REMARKS
WASHINGTON NAT LGT RAIN  68  67  96 E22G31    30.04F
DULLES         LGT RAIN  66  63  90 E12G24    30.04S
QUANTICO       LGT RAIN  69  66  90 E5        30.04S
COLLEGE PARK*  CLOUDY    64  63  94 E8G20     30.05F
LEESBURG*      CLOUDY    68  68 100 SE12G21   30.05S
MANASSAS*      CLOUDY    66  66 100 E12G21    30.04R
GAITHERSBURG*  CLOUDY    64  61  88 E5        30.10R

$$

MDZ006>007-011-014-291000-
BALTIMORE METRO

CITY           SKY/WX    TMP DP  RH WIND       PRES   REMARKS
BWI AIRPORT    RAIN      65  63  93 E18       30.10R FOG
MD SCIENCE CTR   N/A     65  62  90 MISG      30.11R
ANNAPOLIS      LGT RAIN  68  66  93 E14G24    30.08S
FORT MEADE*    CLOUDY    64  63  94 E10G17    30.11S

$$

MDZ012-015-019>023-291000-
MARYLAND EASTERN SHORE

CITY           SKY/WX    TMP DP  RH WIND       PRES   REMARKS
OCEAN CITY     TSTM      72  68  87 E23G37    30.08R
SALISBURY      LGT RAIN  67  66  97 E16       30.08R
BAY BRIDGE AP* LGT RAIN  66  64  94 MISG      30.09R
CAMBRIDGE*     CLOUDY    66  64  94 E8G17     30.07S

$$

MDZ017>025-291000-
SOUTHERN MARYLAND

CITY           SKY/WX    TMP DP  RH WIND       PRES   REMARKS
PATUXENT RIVER MOCLDY    68  65  90 E13G18    30.05S
ST INIGOES     PTCLDY    69  67  93 NE12      30.04R
LEONARDTOWN*   CLOUDY    66  64  94 CALM      30.06S

$$

MDZ003>005-291000-
NORTH CENTRAL MARYLAND

CITY           SKY/WX    TMP DP  RH WIND       PRES   REMARKS
FREDERICK*     NOT AVBL
HAGERSTOWN APT RAIN      61  58  90 NE10      30.08R FOG

$$

MDZ501>502-291000-
WESTERN MARYLAND

CITY           SKY/WX    TMP DP  RH WIND       PRES   REMARKS
OAKLAND*       CLOUDY    54  54 100 SE3       30.08R
CUMBERLAND*    CLOUDY    63  59  88 N6        30.09R

$$

VAZ025>031-291000-
SHENANDOAH VALLEY

CITY           SKY/WX    TMP DP  RH WIND       PRES   REMARKS
WINCHESTER*    CLOUDY    63  61  94 NW5         N/A
FRONT ROYAL*   CLOUDY    61  61 100 N3        30.03R
LURAY*         CLOUDY   N/A N/A N/A N5        30.01S
NEW MARKET*    CLOUDY   N/A N/A N/A CALM      30.01R
STAUNTON*      CLOUDY    61  61  98 N5        30.03S
WAYNESBORO*    CLOUDY    61  60  96 CALM      30.01S

$$

WVZ021-048>050-054>055-291000-
EASTERN WEST VIRGINIA PANHANDLE

CITY           SKY/WX    TMP DP  RH WIND       PRES   REMARKS
MARTINSBURG    LGT RAIN  60  59  96 NE12      30.04S
PETERSBURG*    RAIN      64  63  96 CALM      30.02S

$$

VAZ036>039-050-291000-
CENTRAL FOOTHILLS

CITY           SKY/WX    TMP DP  RH WIND       PRES   REMARKS
CHARLOTTESVILL CLOUDY    68  65  90 NE6       30.00S
CULPEPER*      CLOUDY    68  67  98 CALM      30.03S
ORANGE*        RAIN      66  66 100 CALM      30.03R
GORDONSVILLE*  CLOUDY    66  66 100 N7        29.99F
WARRENTON*     CLOUDY    68  63  83 E8        30.02S

$$

VAZ055>057-291000-
NORTH AND CENTRAL PIEDMONT

CITY           SKY/WX    TMP DP  RH WIND       PRES   REMARKS
FREDERICKSBRG* HVY RAIN  68  68 100 S3        30.03R
STAFFORD*      CLOUDY    67  67 100 NE3       30.06F

$$

NCZ024-NYZ072-PAZ021-071-VAZ022-071-291000-
OTHER REGIONAL OBSERVATIONS

CITY           SKY/WX    TMP DP  RH WIND       PRES   REMARKS
NEW YORK CITY  CLOUDY    61  54  77 E14G20    30.31R
PHILADELPHIA   LGT RAIN  61  59  93 NE15      30.19F
PITTSBURGH     LGT RAIN  56  56 100 VRB3      30.03R FOG
ROANOKE        CLOUDY    64  64 100 NE5       29.99S
RICHMOND       LGT RAIN  67  65  93 NW8       30.02R
RALEIGH        TSTM      66  64  93 SE15      29.95F

$$

ANZ530>537-291000-
MARINE OBSERVATIONS

STATION/POSITION TIME  TEMP    WIND        PRES
                       AIR SEA DIR/SP/G
                 (UTC) (F)     (DEG/KT/KT) (MB)
THOMAS PT LIGHT  0900   67 73   80/ 24/ 27 1019.4R
BALT KEY BRIDGE  0842   66      70/ 17/ 22 1019.0R
COVE POINT       0842   68      90/ 15/ 22 1018.1F
LEWISETTA        0842   71 72   80/ 14/ 18 1016.7R
SOLOMONS ISLAND  0842   69 74   60/ 14/ 19   N/A
PINEY POINT      0848           90/ 11/ 15   N/A

$$




USA.gov is the U.S. government's official web portal to all federal, state and local government web resources and services.